Location: Unspecified
(0.0000°N, 0.0000°E)
Time: 15:48:50
(UTC+00:00)

A-11 Canister half - Pass Details

Date: 30 September 2023
Orbit: 1525 x 1684 km, 47.3° (Epoch: 05 December)

Event Time Altitude Azimuth Distance (km) Brightness Sun altitude
Rises 07:44:28 0° 191° (SSW) 4,785 11.5 28.5°
Reaches altitude 10° 07:49:05 10° 173° (S) 3,768 11.3 29.7°
Maximum altitude 07:54:56 18° 134° (SE) 3,161 11.6 31.2°
Drops below altitude 10° 08:00:39 10° 95° (E) 3,704 12.5 32.6°
Sets 08:05:04 0° 77° (ENE) 4,671 12.5 33.7°
